Regional Weather Roundup
Issued by NWS Charleston, SC

Current Version | Previous Version | Text Only | Print | Product List | Glossary Off
Versions: 1 2 3 4 5 6 7 8 9 10 11 12 13 14 15 16 17 18 19 20 21 22 23 24 25 26 27 28 29 30 31 32 33 34 35 36 37 38 39 40 41 42 43 44 45 46 47 48 49 50

000
ASUS42 KCHS 221010
RWRCHS
REGIONAL WEATHER ROUNDUP
NATIONAL WEATHER SERVICE CHARLESTON SC
600 AM EDT WED OCT 22 2014

NOTE: "FAIR" INDICATES FEW OR NO CLOUDS BELOW 12,000 FEET WITH NO
SIGNIFICANT WEATHER AND/OR OBSTRUCTIONS TO VISIBILITY.

NOT ALL STATIONS ARE QUALITY CONTROLLED BY THE NATIONAL
WEATHER SERVICE. USE DATA WITH CAUTION...ESPECIALLY
DEWPOINT OBSERVATIONS.

SCZ027-030-031-034>040-042>050-221100-
...SOUTH CAROLINA...

CITY           SKY/WX    TMP DP  RH WIND       PRES   REMARKS
N CHARLESTON   CLEAR     52  44  74 N7        29.97R
WATERFRONT PRK NOT AVBL
FORT JOHNSON   NOT AVBL
JOHNS ISLAND   SUNNY     57  46  67 CALM      29.97R
PINOPOLIS      NOT AVBL
MONCKS CORNER  FAIR      57  45  62 N12G18    29.98R
SUMMERVILLE    FAIR      50  45  81 CALM      30.00R
BEAUFORT MCAS  CLEAR     55  48  77 N8        29.99R
BEAUFORT ARPT  FAIR      55  50  82 N8        29.97R
HILTON HEAD IS NOT AVBL
GEORGETOWN     NOT AVBL
WALTERBORO     SUNNY     50  48  93 NW3       30.00R
ORANGEBURG     CLEAR     51  43  74 N3        30.00R
BARNWELL       FAIR      48  45  87 N3        30.01S
AIKEN          FAIR      46  43  87 CALM      30.05R
MANNING        FAIR      50  45  81 CALM      29.99R
KINGSTREE      NOT AVBL
COLUMBIA       CLEAR     53  40  61 VRB3      30.01R
SUMTER         CLEAR     52  40  65 N8        29.98R
FLORENCE       CLEAR     51  39  63 NW8       29.97R
MYRTLE BEACH   CLEAR     55  39  54 N13       29.94R
N MYRTLE BEACH CLEAR     54  42  64 N7        29.93R

$$

GAZ063-065-086>088-099>101-113>116-118-119-134-136>141-150-221100-
...GEORGIA...

CITY           SKY/WX    TMP DP  RH WIND       PRES   REMARKS
SAVANNAH ARPT  CLEAR     56  48  74 N5        29.99R
HUNTER AAF     CLEAR     57  48  72 N9        29.96R
FORT STEWART   CLEAR     54  48  81 VRB6      29.97R
STATESBORO     NOT AVBL
SYLVANIA       SUNNY     56  52  86 N3        30.01R
CLAXTON        FAIR      48  48 100 CALM      30.00R
THOMSON        CLEAR     45  45 100 CALM      30.07R
AUGUSTA-BUSH   CLEAR     44  41  89 CALM      30.02R
AUGUSTA-DANIEL CLEAR     52  44  74 N6        30.02R
SWAINSBORO     FAIR      48  48 100 MISG      30.02R FOG
VIDALIA        CLEAR     52  48  87 N6        30.01R
ALMA           CLEAR     52  49  89 NW3       29.99R
WAYCROSS       CLEAR     57  54  89 CALM      29.99R
JESUP          FAIR      59  52  77 N6        29.98S
BRUNSWICK      CLEAR     57  52  82 NW3       29.98R
SAINT SIMONS   CLEAR     58  51  78 N6        29.96R

$$

SCZ027-028-034-036>038-045-046-048>050-GAZ119-141-221100-
...LAKE AND SUPPLEMENTAL COASTAL OBSERVATIONS...

STATION/POSITION TIME  TEMP    WIND        PRES    WAVE   SWELL
                       AIR SEA DIR/SP/G            HT/PER HT/PER/DIR
                 (UTC) (F)     (DEG/KT/KT) (MB)    (FT/S) (FT/S/D)
UPR LAKE MARION  NOT AVBL
WINYAH BAY       0900   56     340/  5     1013.0S
LAKE MURRAY      0900   51     330/  1/  5 1015.2R
ACE BASIN NERRS  0900   56      10/  2     1014.0S
FORT PULASKI     1000   58     340/  7/ 10 1015.1R
SAPELO ISLAND    NOT AVBL

$$

ANZ835-935-AMZ111-154-330-350-352-354-374-450-454-472-221100-
...C-MAN AND BUOY OBSERVATIONS...

STATION/POSITION TIME  TEMP    WIND        PRES    WAVE   SWELL
                       AIR SEA DIR/SP/G            HT/PER HT/PER/DIR
                 (UTC) (F)     (DEG/KT/KT) (MB)    (FT/S) (FT/S/D)
FOLLY BEACH CMAN 0900   61     360/ 14/ 19 1014.4R
BUOY 41004       1000   67 79  360/ 19/ 25 1012.2R   5/ 5   2/10
BUOY 41008       1000   68 76   10/ 16/ 19 1013.8R   3/ 4   2/ 90/ 9
5E ST. MARYS GA  1000      77                N/A     3/ 4
FRYING PAN BUOY  1000   63 75  340/ 17/ 23 1012.6R   5/ 5   2/100/ 9
BUOY 41025       1000   63     300/ 17/ 21 1009.2R   3/ 4   2/ 90/11
CAPE LOOKOUT NC  0900   60     320/ 14/ 18 1010.6R
BUOY 41002       0908   77 79  280/ 17/ 21 1010.7R   4/10   2/110/10
BUOY 41010       1000   77 80  220/ 12/ 14 1012.8R   3/ 9   2/ 90/ 9
BUOY 41012       NOT AVBL
ST AUGUSTINE FL  1000   65     320/  7/  8 1014.6R
CAPERS NEARSHORE 0900   61      20/ 16/ 17   N/A
FRIPP NEARSHORE  NOT AVBL


$$



USA.gov is the U.S. government's official web portal to all federal, state and local government web resources and services.